Location: Newark
(41.9364°N, 2.8061°E)
Time: 16:33:50
(UTC+00:00)

X-37B - Pass Details

Date: 06 August 2021
Orbit: 381 x 393 km, 45.0° (Epoch: 29 August)

Event Time Altitude Azimuth Distance (km) Brightness Sun altitude
Exits shadow 03:29:08 16° 282° (WNW) 1,101 2.5 -13.4°
Maximum altitude 03:31:26 47° 354° (N) 512 1.4 -13.0°
Drops below altitude 10° 03:34:29 10° 70° (ENE) 1,398 4.7 -12.6°
Sets 03:36:36 0° 76° (ENE) 2,252 5.8 -12.3°
